Погода в Папеэте

Французская Полинезия     17°32′21″S   149°33′24″W
темп.,
°C
ветер,
м/с
пор.,
м/с
влажн.,
%
обл.,
%
осадки,
мм/ч
давл.,
гПа
погр.,
м
5 марта, пт
пт523:00+27в4474100 7.2 1012381
02:00+27с2271100 11.1 1011452
05:00+27юв757892 5.6 1011353
08:00+27вюв657696 11.4 1013414
11:00+24ссз2286100 10.0 1013252
14:00+24всв6690100 21.6 1011406
17:00+24ссз4490100 0.3 1010370
20:00+24ссз2278100 0.8 1012129
6 марта, сб
сб623:00+25с117690 0.0 1011157
02:00+25св127663 0.0 1010190
05:00+26ссв347839 3.6 1010244
08:00+26ссз677770 11.4 1012622
11:00+26ссз6778100 2.0 1011838
14:00+26ссз6779100 2.6 1009865
17:00+26ссз6779100 1.3 1008846
20:00+27ссз7879100 2.9 1010914
7 марта, вс
вс723:00+26ссз7881100 2.3 1011852
02:00+25ссз8985100 5.9 1009739
05:00+25ссз7884100 3.5 1009760
08:00+25ссз8985100 6.0 1011754
11:00+25ссз91086100 3.3 1010833
14:00+26ссз91085100 5.5 1008899
17:00+26ссз81085100 2.1 1008777
20:00+26ссз81086100 4.0 1010784
8 марта, пн
пн823:00+26ссз7885100 1.4 1011745
02:00+26ссз7883100 3.2 1011829
05:00+26с8982100 0.8 1011913
08:00+26с7876100 0.8 1013803
11:00+26с7980100 0.0 1013918
14:00+26с6681100 0.3 1012795
17:00+27ссз668070 0.4 1012820
20:00+26с567985 0.6 1014836
9 марта, вт
вт923:00+27ссв567568 0.1 1015980
02:00+26св777484 0.1 1014801
05:00+26св677767 0.0 1014840
08:00+27св677664 0.0 1016900
11:00+27всв678071 0.1 1016762
14:00+27всв567151 0.1 1014735
17:00+27в55742 0.0 1014819
20:00+27вюв77776 0.3 1016781